カタログに戻る

COSMOS 1275 DEB

運用中PO
NORAD 12740·DEBRIS·🇷🇺 Russia

打ち上げ Jun 4, 1981 から Plesetsk Cosmodrome

Loading…

次のパス (今後24時間)

TLE

最新Source: Space-Track

元期: Sep 14, 2026, 09:19 UTC

1 12740U 81053CH  26257.38823843  .00002504  00000-0  75909-3 0  9996
2 12740  82.8353 126.6595 0010497 206.5069 327.6629 14.41930626310171

AllMySatでCOSMOS 1275 DEBをリアルタイム追跡

Download on the App Store